Weather History for KOBE - June, 2013

Change the Weather History Date:

Wednesday, June 26, 2013

  Actual Average (KVRB) Record (KVRB)
Temperature  
Mean Temperature 79 °F 81 °F  
Max Temperature 87 °F 89 °F 98 °F (1950)
Min Temperature 71 °F 73 °F 65 °F (1971)
Degree Days  
Heating Degree Days 0 0  
Month to date heating degree days 0  
Since 1 June heating degree days 0  
Since 1 July heating degree days 456  
Cooling Degree Days 14 16  
Month to date cooling degree days 393  
Year to date cooling degree days 1199  
Since 1 June cooling degree days 393  
Growing Degree Days 29 (Base 50)    
Moisture  
Dew Point 72 °F    
Average Humidity 88    
Maximum Humidity 100    
Minimum Humidity 62    
Precipitation  
Precipitation 0.07 in 0.23 in 3.03 in (1974)
Month to date precipitation 5.76  
Year to date precipitation 21.13  
Sea Level Pressure  
Sea Level Pressure 30.07 in    
Wind  
Wind Speed 4 mph (SE)    
Max Wind Speed 14 mph    
Max Gust Speed 20 mph    
Visibility 9 miles    
Events Rain , Thunderstorm    
T = Trace of Precipitation, MM = Missing Value Source: NWS Daily Summary

Daily Weather History Graph

Daily Weather History Graph

Search for Another Location

Airport or City:

Trip Planner

Search our weather history database for the weather conditions in past years. The results will help you decide how hot, cold, wet, or windy it might be!

Date:

Astronomy

Jun. 26, 2013 Rise Set
Actual Time 6:30 AM EDT 8:21 PM EDT
Civil Twilight 6:04 AM EDT 8:48 PM EDT
Nautical Twilight 5:32 AM EDT 9:20 PM EDT
Astronomical Twilight 4:58 AM EDT 9:54 PM EDT
Moon 11:08 PM EDT (6/26) 10:00 AM EDT (6/26)
Length of Visible Light 14h 44m
Length of Day
13h 51m
Waning Gibbous, 85% of the Moon is Illuminated
Jun 26
Waning Gibbous
Jun 30
Last Quarter
Jul 8
New
Jul 15
First Quarter
Jul 22
Full

Hourly Weather History & Observations

Time (EDT) Temp. Heat Index Dew Point Humidity Pressure Visibility Wind Dir Wind Speed Gust Speed Precip Events Conditions
12:15 AM 73.4 °F - 71.6 °F 94% 30.10 in 10.0 mi ESE 4.6 mph - N/A   Clear
12:35 AM 73.4 °F - 71.6 °F 94% 30.09 in 10.0 mi ESE 4.6 mph - N/A   Clear
12:55 AM 73.4 °F - 73.4 °F 100% 30.09 in 10.0 mi ESE 4.6 mph - N/A   Clear
1:15 AM 75.2 °F - 73.4 °F 94% 30.09 in 10.0 mi SE 4.6 mph - N/A   Clear
1:35 AM 75.2 °F - 73.4 °F 94% 30.08 in 10.0 mi SE 4.6 mph - N/A   Clear
1:55 AM 73.4 °F - 73.4 °F 100% 30.07 in 10.0 mi SE 4.6 mph - N/A   Clear
2:15 AM 73.4 °F - 73.4 °F 100% 30.07 in 10.0 mi Calm Calm - N/A   Clear
2:35 AM 73.4 °F - 71.6 °F 94% 30.06 in 10.0 mi ESE 3.5 mph - N/A   Clear
2:55 AM 73.4 °F - 71.6 °F 94% 30.05 in 10.0 mi ESE 3.5 mph - N/A   Clear
3:15 AM 73.4 °F - 71.6 °F 94% 30.05 in 10.0 mi Calm Calm - N/A   Clear
3:35 AM 71.6 °F - 71.6 °F 100% 30.04 in 10.0 mi ENE 3.5 mph - N/A   Clear
3:55 AM 71.6 °F - 71.6 °F 100% 30.04 in 7.0 mi East 3.5 mph - N/A   Clear
4:15 AM 71.6 °F - 71.6 °F 100% 30.03 in 7.0 mi ESE 3.5 mph - N/A   Clear
4:35 AM 71.6 °F - 71.6 °F 100% 30.03 in 7.0 mi SE 3.5 mph - N/A   Clear
4:55 AM 71.6 °F - 71.6 °F 100% 30.04 in 7.0 mi Calm Calm - N/A   Clear
5:15 AM 71.6 °F - 71.6 °F 100% 30.04 in 7.0 mi Calm Calm - N/A   Clear
5:35 AM 71.6 °F - 71.6 °F 100% 30.05 in 7.0 mi Calm Calm - N/A   Clear
5:55 AM 71.6 °F - 71.6 °F 100% 30.06 in 7.0 mi Calm Calm - N/A   Clear
6:15 AM 71.6 °F - 71.6 °F 100% 30.07 in 7.0 mi Calm Calm - N/A   Clear
6:35 AM 71.6 °F - 71.6 °F 100% 30.07 in 7.0 mi Calm Calm - N/A   Scattered Clouds
6:55 AM 71.6 °F - 71.6 °F 100% 30.07 in 5.0 mi East 3.5 mph - N/A   Mostly Cloudy
7:15 AM 73.4 °F - 73.4 °F 100% 30.07 in 7.0 mi SE 3.5 mph - N/A   Scattered Clouds
7:35 AM 73.4 °F - 73.4 °F 100% 30.07 in 7.0 mi SE 3.5 mph - N/A   Clear
7:55 AM 77.0 °F - 75.2 °F 94% 30.08 in 10.0 mi SE 3.5 mph - N/A   Clear
8:15 AM 78.8 °F - 75.2 °F 89% 30.08 in 10.0 mi ESE 3.5 mph - N/A   Clear
8:35 AM 80.6 °F 86.2 °F 75.2 °F 84% 30.08 in 10.0 mi ESE 3.5 mph - N/A   Clear
8:55 AM 80.6 °F 86.2 °F 75.2 °F 84% 30.08 in 10.0 mi SSE 5.8 mph - N/A   Clear
9:15 AM 80.6 °F 85.4 °F 73.4 °F 79% 30.08 in 10.0 mi SSE 6.9 mph - N/A   Scattered Clouds
9:35 AM 82.4 °F 88.2 °F 73.4 °F 74% 30.08 in 10.0 mi SSE 8.1 mph - N/A   Scattered Clouds
9:55 AM 82.4 °F 88.2 °F 73.4 °F 74% 30.08 in 10.0 mi South 8.1 mph - N/A   Scattered Clouds
10:15 AM 82.4 °F 88.2 °F 73.4 °F 74% 30.09 in 10.0 mi SSE 8.1 mph - N/A   Scattered Clouds
10:55 AM 84.2 °F 92.3 °F 75.2 °F 74% 30.09 in 10.0 mi South 8.1 mph - N/A   Scattered Clouds
11:15 AM 86.0 °F 93.4 °F 73.4 °F 66% 30.09 in 10.0 mi SSE 9.2 mph - N/A   Scattered Clouds
11:35 AM 86.0 °F 93.4 °F 73.4 °F 66% 30.09 in 10.0 mi South 8.1 mph - N/A   Scattered Clouds
11:55 AM 86.0 °F 93.4 °F 73.4 °F 66% 30.09 in 10.0 mi South 9.2 mph - N/A   Clear
12:15 PM 86.0 °F 93.4 °F 73.4 °F 66% 30.09 in 10.0 mi South 6.9 mph - N/A   Clear
12:35 PM 86.0 °F 93.4 °F 73.4 °F 66% 30.09 in 10.0 mi SSW 9.2 mph - N/A   Clear
12:55 PM 87.8 °F 95.6 °F 73.4 °F 62% 30.08 in 10.0 mi South 8.1 mph - N/A   Clear
1:15 PM 87.8 °F 95.6 °F 73.4 °F 62% 30.08 in 10.0 mi South 6.9 mph - N/A Thunderstorm Clear
1:35 PM 87.8 °F 97.6 °F 75.2 °F 66% 30.08 in 10.0 mi South 9.2 mph - N/A Thunderstorm Clear
1:55 PM 87.8 °F 95.6 °F 73.4 °F 62% 30.07 in 10.0 mi SSW 6.9 mph - N/A Thunderstorm Clear
2:15 PM 87.8 °F 95.6 °F 73.4 °F 62% 30.06 in 10.0 mi South 8.1 mph - N/A Thunderstorm Thunderstorm
2:35 PM 87.8 °F 95.6 °F 73.4 °F 62% 30.07 in 10.0 mi SSE 10.4 mph 16.1 mph N/A Thunderstorm Scattered Clouds
2:55 PM 84.2 °F 90.9 °F 73.4 °F 70% 30.06 in 10.0 mi SE 13.8 mph 19.6 mph N/A Thunderstorm Mostly Cloudy
3:15 PM 84.2 °F 90.9 °F 73.4 °F 70% 30.06 in 10.0 mi ESE 10.4 mph - N/A Thunderstorm Clear
3:35 PM 80.6 °F 83.9 °F 69.8 °F 70% 30.08 in 10.0 mi East 6.9 mph - N/A Thunderstorm Thunderstorm
3:55 PM 77.0 °F - 69.8 °F 78% 30.07 in 10.0 mi East 10.4 mph - N/A Thunderstorm Unknown
4:15 PM 78.8 °F - 69.8 °F 74% 30.09 in 10.0 mi ENE 4.6 mph - N/A Rain , Thunderstorm Light Thunderstorms and Rain
4:35 PM 77.0 °F - 71.6 °F 83% 30.11 in 10.0 mi Calm Calm - N/A Rain , Thunderstorm Light Thunderstorms and Rain
4:55 PM 75.2 °F - 71.6 °F 89% 30.09 in 10.0 mi Calm Calm - N/A Thunderstorm Thunderstorm
5:15 PM 77.0 °F - 71.6 °F 83% 30.08 in 10.0 mi NW 4.6 mph - N/A Thunderstorm Clear
5:35 PM 73.4 °F - 69.8 °F 88% 30.08 in 10.0 mi WNW 3.5 mph - N/A Thunderstorm Clear
5:55 PM 73.4 °F - 69.8 °F 88% 30.07 in 10.0 mi Calm Calm - N/A Thunderstorm Thunderstorm
6:15 PM 73.4 °F - 71.6 °F 94% 30.07 in 10.0 mi Calm Calm - N/A Thunderstorm Clear
6:35 PM 73.4 °F - 71.6 °F 94% 30.06 in 10.0 mi NW 5.8 mph - N/A Rain Light Rain
6:55 PM 71.6 °F - 71.6 °F 100% 30.07 in 10.0 mi WNW 4.6 mph - 0.01 in Rain Light Rain
7:15 PM 71.6 °F - 71.6 °F 100% 30.06 in 10.0 mi WNW 4.6 mph - N/A Rain Light Rain
7:35 PM 71.6 °F - 71.6 °F 100% 30.04 in 10.0 mi Calm Calm - 0.02 in Rain Light Rain
7:55 PM 71.6 °F - 71.6 °F 100% 30.02 in 10.0 mi Calm Calm - 0.03 in Rain Light Rain
8:15 PM 71.6 °F - 71.6 °F 100% 30.02 in 10.0 mi SE 4.6 mph - N/A Rain Light Rain
8:35 PM 71.6 °F - 71.6 °F 100% 30.02 in 10.0 mi SSE 4.6 mph - N/A   Light Drizzle
8:55 PM 73.4 °F - 71.6 °F 94% 30.05 in 10.0 mi NNW 4.6 mph - N/A   Light Drizzle
9:15 PM 71.6 °F - 71.6 °F 100% 30.08 in 10.0 mi NNW 5.8 mph - N/A   Scattered Clouds
9:35 PM 71.6 °F - 71.6 °F 100% 30.10 in 10.0 mi North 4.6 mph - N/A Rain Rain
9:55 PM 71.6 °F - 71.6 °F 100% 30.09 in 7.0 mi NE 4.6 mph - 0.02 in Rain Light Rain
10:15 PM 71.6 °F - 71.6 °F 100% 30.09 in 7.0 mi NNW 3.5 mph - N/A Rain Rain
10:35 PM 71.6 °F - 71.6 °F 100% 30.07 in 7.0 mi Calm Calm - 0.01 in Rain Light Rain
10:55 PM 71.6 °F - 71.6 °F 100% 30.07 in 7.0 mi Calm Calm - 0.01 in   Clear
11:15 PM 71.6 °F - 71.6 °F 100% 30.07 in 7.0 mi Calm Calm - N/A   Clear
11:35 PM 71.6 °F - 71.6 °F 100% 30.07 in 7.0 mi East 3.5 mph - N/A   Clear
11:55 PM 71.6 °F - 71.6 °F 100% 30.07 in 10.0 mi Calm Calm - N/A   Clear